Time,TemperatureF,DewpointF,PressureIn,WindDirection,WindDirectionDegrees,WindSpeedMPH,WindSpeedGustMPH,Humidity,HourlyPrecipIn,Conditions,Clouds,dailyrainin,SoftwareType,DateUTC
2013-01-28 00:04:00,37.1,30.8,30.10,SSW,203,0.0,0.0,78,99.99,,,40.00,WSDL version 423,2013-01-28 08:04:00,
2013-01-28 00:09:00,37.0,30.8,30.10,SSW,203,0.0,0.0,78,99.99,,,72.25,WSDL version 423,2013-01-28 08:09:00,
2013-01-28 00:14:00,36.9,30.8,30.09,SSW,203,0.0,0.0,79,99.99,,,96.75,WSDL version 423,2013-01-28 08:14:00,
2013-01-28 00:19:00,36.9,31.0,30.10,SSW,203,0.0,0.0,79,99.99,,,99.99,WSDL version 423,2013-01-28 08:19:00,
2013-01-28 00:24:00,37.0,31.5,30.10,SSW,203,0.0,0.0,81,99.99,,,99.99,WSDL version 423,2013-01-28 08:24:00,
2013-01-28 00:29:00,37.0,32.1,30.09,SSW,203,0.0,0.0,82,99.99,,,99.99,WSDL version 423,2013-01-28 08:29:00,
2013-01-28 00:34:00,37.0,32.1,30.09,SSW,203,0.0,0.0,82,99.99,,,99.99,WSDL version 423,2013-01-28 08:34:00,
2013-01-28 00:39:00,36.9,32.0,30.09,SSW,203,0.0,0.0,82,99.99,,,99.99,WSDL version 423,2013-01-28 08:39:00,
2013-01-28 00:44:00,36.8,31.9,30.09,SSW,203,0.0,0.0,82,99.99,,,99.99,WSDL version 423,2013-01-28 08:44:00,
2013-01-28 00:49:00,36.7,31.8,30.09,SSW,203,0.0,0.0,82,99.99,,,99.99,WSDL version 423,2013-01-28 08:49:00,
2013-01-28 00:54:00,36.6,31.7,30.09,SSW,203,0.0,0.0,82,99.99,,,99.99,WSDL version 423,2013-01-28 08:54:00,
2013-01-28 00:59:00,36.4,31.5,30.09,SSW,203,0.0,0.0,82,99.99,,,99.99,WSDL version 423,2013-01-28 08:59:00,
2013-01-28 01:04:00,36.0,31.1,30.10,SSW,203,0.0,0.0,82,99.99,,,99.99,WSDL version 423,2013-01-28 09:04:00,
2013-01-28 01:09:00,35.7,30.8,30.10,SSW,203,0.0,0.0,82,99.99,,,99.99,WSDL version 423,2013-01-28 09:09:00,
2013-01-28 01:14:00,35.5,30.7,30.09,SSW,203,0.0,0.0,83,99.99,,,99.99,WSDL version 423,2013-01-28 09:14:00,
2013-01-28 01:19:00,35.4,30.9,30.09,SSW,203,0.0,0.0,83,99.99,,,99.99,WSDL version 423,2013-01-28 09:19:00,
2013-01-28 01:24:00,35.2,30.6,30.09,SSW,203,0.0,0.0,83,99.99,,,99.99,WSDL version 423,2013-01-28 09:24:00,
2013-01-28 01:29:00,34.9,30.4,30.09,SSW,203,0.0,0.0,83,99.99,,,99.99,WSDL version 423,2013-01-28 09:29:00,
2013-01-28 01:34:00,34.8,30.3,30.09,SSW,203,0.0,0.0,83,99.99,,,99.99,WSDL version 423,2013-01-28 09:34:00,
2013-01-28 01:39:00,34.6,30.1,30.10,SSW,203,0.0,0.0,83,99.99,,,99.99,WSDL version 423,2013-01-28 09:39:00,
2013-01-28 01:44:00,34.6,30.4,30.09,SSW,203,0.0,0.0,84,99.99,,,99.99,WSDL version 423,2013-01-28 09:44:00,
2013-01-28 01:49:00,34.7,30.8,30.10,SSW,203,0.0,0.0,86,99.99,,,99.99,WSDL version 423,2013-01-28 09:49:00,
2013-01-28 01:54:00,34.7,30.8,30.10,SSW,203,0.0,0.0,86,99.99,,,99.99,WSDL version 423,2013-01-28 09:54:00,
2013-01-28 01:59:00,34.8,30.9,30.10,SSW,203,0.0,0.0,86,99.99,,,99.99,WSDL version 423,2013-01-28 09:59:00,
2013-01-28 02:04:00,34.9,31.0,30.10,SSW,203,0.0,0.0,86,99.99,,,99.99,WSDL version 423,2013-01-28 10:04:00,
2013-01-28 02:09:00,34.8,30.9,30.10,SSW,203,0.0,0.0,86,99.99,,,99.99,WSDL version 423,2013-01-28 10:09:00,
2013-01-28 02:14:00,34.6,30.5,30.10,SSW,203,0.0,0.0,84,96.75,,,99.99,WSDL version 423,2013-01-28 10:14:00,
2013-01-28 02:19:00,34.4,30.3,30.09,SSW,203,0.0,0.0,86,64.50,,,99.99,WSDL version 423,2013-01-28 10:19:00,
2013-01-28 02:24:00,34.3,30.5,30.09,SSW,203,0.0,0.0,86,64.50,,,99.99,WSDL version 423,2013-01-28 10:24:00,
2013-01-28 02:29:00,34.3,30.6,30.09,SSW,203,0.0,0.0,87,40.00,,,99.99,WSDL version 423,2013-01-28 10:29:00,
2013-01-28 02:34:00,34.3,30.8,30.09,SSW,203,0.0,0.0,87,56.75,,,99.99,WSDL version 423,2013-01-28 10:34:00,
2013-01-28 02:39:00,34.3,30.8,30.09,SSW,203,0.0,0.0,87,64.50,,,99.99,WSDL version 423,2013-01-28 10:39:00,
2013-01-28 02:44:00,34.3,30.8,30.09,SSW,203,0.0,0.0,87,64.50,,,99.99,WSDL version 423,2013-01-28 10:44:00,
2013-01-28 02:49:00,34.3,30.8,30.09,SSW,203,0.0,0.0,87,99.99,,,99.99,WSDL version 423,2013-01-28 10:49:00,
2013-01-28 02:54:00,34.3,30.8,30.09,SSW,203,0.0,0.0,87,99.99,,,99.99,WSDL version 423,2013-01-28 10:54:00,
2013-01-28 02:59:00,34.5,31.2,30.09,SSW,203,0.0,0.0,88,99.99,,,99.99,WSDL version 423,2013-01-28 10:59:00,
2013-01-28 03:04:00,34.7,31.4,30.09,SSW,203,0.0,0.0,88,99.99,,,99.99,WSDL version 423,2013-01-28 11:04:00,
2013-01-28 03:09:00,34.9,31.7,30.09,SSW,203,0.0,0.0,88,99.99,,,99.99,WSDL version 423,2013-01-28 11:09:00,
2013-01-28 03:14:00,35.0,31.7,30.09,SSW,203,0.0,0.0,88,99.99,,,99.99,WSDL version 423,2013-01-28 11:14:00,
2013-01-28 03:19:00,34.8,31.4,30.10,SSW,203,0.0,0.0,87,99.99,,,99.99,WSDL version 423,2013-01-28 11:19:00,
2013-01-28 03:24:00,34.7,31.1,30.09,SSW,203,0.0,0.0,87,99.99,,,99.99,WSDL version 423,2013-01-28 11:24:00,
2013-01-28 03:29:00,34.7,31.1,30.10,SSW,203,0.0,0.0,87,99.99,,,99.99,WSDL version 423,2013-01-28 11:29:00,
2013-01-28 03:34:00,34.7,31.1,30.10,SSW,203,0.0,0.0,87,99.99,,,99.99,WSDL version 423,2013-01-28 11:34:00,
2013-01-28 03:39:00,34.6,30.7,30.10,SSW,203,0.0,0.0,86,99.99,,,99.99,WSDL version 423,2013-01-28 11:39:00,
2013-01-28 03:44:00,34.5,30.6,30.10,SSW,203,0.0,0.0,86,99.99,,,99.99,WSDL version 423,2013-01-28 11:44:00,
2013-01-28 03:49:00,34.3,30.2,30.10,SSW,203,0.0,0.0,84,99.99,,,99.99,WSDL version 423,2013-01-28 11:49:00,
2013-01-28 03:54:00,34.3,30.3,30.09,SSW,203,0.0,0.0,84,64.50,,,99.99,WSDL version 423,2013-01-28 11:54:00,
2013-01-28 03:59:00,34.2,30.0,30.10,SSW,203,0.0,0.0,84,64.50,,,99.99,WSDL version 423,2013-01-28 11:59:00,
2013-01-28 04:04:00,34.0,29.8,30.10,SSW,203,0.0,0.0,84,64.50,,,99.99,WSDL version 423,2013-01-28 12:04:00,
2013-01-28 04:09:00,33.9,29.7,30.10,SSW,203,0.0,0.0,84,64.50,,,99.99,WSDL version 423,2013-01-28 12:09:00,
2013-01-28 04:14:00,33.8,29.6,30.10,SSW,203,0.0,0.0,84,64.50,,,99.99,WSDL version 423,2013-01-28 12:14:00,
2013-01-28 04:19:00,33.7,29.5,30.10,SSW,203,0.0,0.0,84,64.50,,,99.99,WSDL version 423,2013-01-28 12:19:00,
2013-01-28 04:24:00,33.6,29.4,30.10,SSW,203,0.0,0.0,84,32.25,,,99.99,WSDL version 423,2013-01-28 12:24:00,
2013-01-28 04:29:00,33.6,29.4,30.10,SSW,203,0.0,0.0,84,32.25,,,99.99,WSDL version 423,2013-01-28 12:29:00,
2013-01-28 04:34:00,33.5,29.3,30.10,SSW,203,0.0,0.0,84,32.25,,,99.99,WSDL version 423,2013-01-28 12:34:00,
2013-01-28 04:39:00,33.3,29.1,30.10,SSW,203,0.0,0.0,84,32.25,,,99.99,WSDL version 423,2013-01-28 12:39:00,
2013-01-28 04:44:00,33.3,29.1,30.10,SSW,203,0.0,0.0,84,32.25,,,99.99,WSDL version 423,2013-01-28 12:44:00,
2013-01-28 04:49:00,33.3,29.4,30.10,SSW,203,0.0,0.0,86,32.25,,,99.99,WSDL version 423,2013-01-28 12:49:00,
2013-01-28 04:54:00,33.1,29.2,30.10,SSW,203,0.0,0.0,86,32.25,,,99.99,WSDL version 423,2013-01-28 12:54:00,
2013-01-28 04:59:00,33.2,29.4,30.10,SSW,203,0.0,0.0,87,0.00,,,99.99,WSDL version 423,2013-01-28 12:59:00,
2013-01-28 05:04:00,33.4,29.9,30.10,SSW,203,0.0,0.0,87,0.00,,,99.99,WSDL version 423,2013-01-28 13:04:00,
2013-01-28 05:09:00,33.8,30.4,30.10,SSW,203,0.0,0.0,88,0.00,,,99.99,WSDL version 423,2013-01-28 13:09:00,
2013-01-28 05:14:00,34.1,30.8,30.10,SSW,203,0.0,0.0,87,0.00,,,99.99,WSDL version 423,2013-01-28 13:14:00,
2013-01-28 05:19:00,34.2,30.5,30.10,SSW,203,0.0,0.0,86,0.00,,,99.99,WSDL version 423,2013-01-28 13:19:00,
2013-01-28 05:24:00,34.2,30.0,30.10,SSW,203,0.0,0.0,84,0.00,,,99.99,WSDL version 423,2013-01-28 13:24:00,
2013-01-28 05:29:00,34.6,30.0,30.10,SSW,203,0.0,0.0,82,0.00,,,99.99,WSDL version 423,2013-01-28 13:29:00,
2013-01-28 05:34:00,35.2,29.8,30.10,SSW,203,0.0,0.0,80,0.00,,,99.99,WSDL version 423,2013-01-28 13:34:00,
2013-01-28 05:39:00,35.6,29.2,30.10,SSW,203,0.0,0.0,77,0.00,,,99.99,WSDL version 423,2013-01-28 13:39:00,
2013-01-28 05:44:00,35.6,28.7,30.09,SSW,203,0.0,0.0,75,0.00,,,99.99,WSDL version 423,2013-01-28 13:44:00,
2013-01-28 05:49:00,35.7,28.2,30.10,SSW,203,0.0,0.0,73,0.00,,,99.99,WSDL version 423,2013-01-28 13:49:00,
2013-01-28 05:54:00,35.8,27.6,30.10,SSW,203,0.0,0.0,71,0.00,,,99.99,WSDL version 423,2013-01-28 13:54:00,
2013-01-28 05:59:00,36.1,27.4,30.10,SSW,203,0.0,0.0,70,0.00,,,99.99,WSDL version 423,2013-01-28 13:59:00,
2013-01-28 06:04:00,36.1,27.2,30.10,SSW,203,0.0,0.0,69,0.00,,,99.99,WSDL version 423,2013-01-28 14:04:00,
2013-01-28 06:09:00,36.3,26.8,30.10,SSW,203,0.0,0.0,67,0.00,,,99.99,WSDL version 423,2013-01-28 14:09:00,
2013-01-28 06:14:00,36.4,26.5,30.10,SSW,203,0.0,0.0,67,0.00,,,99.99,WSDL version 423,2013-01-28 14:14:00,
2013-01-28 06:19:00,36.4,26.3,30.10,SSW,203,0.0,0.0,67,0.00,,,99.99,WSDL version 423,2013-01-28 14:19:00,
2013-01-28 06:24:00,36.4,25.9,30.11,SSW,203,0.0,0.0,65,0.00,,,99.99,WSDL version 423,2013-01-28 14:24:00,
2013-01-28 06:29:00,36.6,25.7,30.11,SSW,203,0.0,0.0,64,0.00,,,99.99,WSDL version 423,2013-01-28 14:29:00,
2013-01-28 06:34:00,36.7,25.6,30.11,SSW,203,0.0,0.0,63,0.00,,,99.99,WSDL version 423,2013-01-28 14:34:00,
2013-01-28 06:39:00,36.7,25.2,30.11,SSW,203,0.0,0.0,63,0.00,,,99.99,WSDL version 423,2013-01-28 14:39:00,
2013-01-28 06:44:00,36.7,25.3,30.11,SSW,203,0.0,0.0,63,0.00,,,99.99,WSDL version 423,2013-01-28 14:44:00,
2013-01-28 06:49:00,36.7,25.1,30.11,SSW,203,0.0,0.0,62,32.25,,,99.99,WSDL version 423,2013-01-28 14:49:00,
2013-01-28 06:54:00,36.5,24.8,30.12,SSW,203,0.0,0.0,62,32.25,,,99.99,WSDL version 423,2013-01-28 14:54:00,
2013-01-28 06:59:00,36.2,24.5,30.12,SSW,203,0.0,0.0,62,32.25,,,99.99,WSDL version 423,2013-01-28 14:59:00,
2013-01-28 07:04:00,35.8,24.4,30.13,SSW,203,0.0,0.0,63,32.25,,,99.99,WSDL version 423,2013-01-28 15:04:00,
2013-01-28 07:09:00,35.4,24.3,30.13,SSW,203,0.0,0.0,64,32.25,,,99.99,WSDL version 423,2013-01-28 15:09:00,
2013-01-28 07:14:00,35.1,24.4,30.13,SSW,203,0.0,0.0,65,32.25,,,99.99,WSDL version 423,2013-01-28 15:14:00,
2013-01-28 07:19:00,35.1,25.1,30.13,SSW,203,0.0,0.0,68,32.25,,,99.99,WSDL version 423,2013-01-28 15:19:00,
2013-01-28 07:24:00,35.1,26.0,30.14,SSW,203,0.0,0.0,70,32.25,,,99.99,WSDL version 423,2013-01-28 15:24:00,
2013-01-28 07:29:00,35.1,26.6,30.14,SSW,203,0.0,0.0,71,32.25,,,99.99,WSDL version 423,2013-01-28 15:29:00,
2013-01-28 07:34:00,35.7,27.6,30.14,SSW,203,0.0,0.0,73,32.25,,,99.99,WSDL version 423,2013-01-28 15:34:00,
2013-01-28 07:39:00,36.2,28.4,30.14,SSW,203,0.0,0.0,73,64.50,,,99.99,WSDL version 423,2013-01-28 15:39:00,
2013-01-28 07:44:00,36.2,28.8,30.14,SSW,203,0.0,0.0,74,64.50,,,99.99,WSDL version 423,2013-01-28 15:44:00,
2013-01-28 07:49:00,36.0,28.3,30.15,SSW,203,0.0,0.0,73,32.25,,,99.99,WSDL version 423,2013-01-28 15:49:00,
2013-01-28 07:54:00,35.9,28.1,30.15,SSW,203,0.0,0.0,73,32.25,,,99.99,WSDL version 423,2013-01-28 15:54:00,
2013-01-28 07:59:00,36.3,28.5,30.15,SSW,203,0.0,0.0,73,32.25,,,99.99,WSDL version 423,2013-01-28 15:59:00,
2013-01-28 08:04:00,36.7,28.5,30.15,SSW,203,0.0,0.0,72,32.25,,,99.99,WSDL version 423,2013-01-28 16:04:00,
2013-01-28 08:09:00,37.2,29.0,30.15,SSW,203,0.0,0.0,72,32.25,,,99.99,WSDL version 423,2013-01-28 16:09:00,
2013-01-28 08:14:00,37.9,29.4,30.15,SSW,203,0.0,0.0,71,32.25,,,99.99,WSDL version 423,2013-01-28 16:14:00,
2013-01-28 08:19:00,38.7,30.0,30.15,SSW,203,0.0,0.0,70,32.25,,,99.99,WSDL version 423,2013-01-28 16:19:00,
2013-01-28 08:24:00,39.5,30.4,30.15,SSW,203,0.0,0.0,69,32.25,,,99.99,WSDL version 423,2013-01-28 16:24:00,
2013-01-28 08:29:00,40.2,30.7,30.15,SSW,203,0.0,0.0,68,32.25,,,99.99,WSDL version 423,2013-01-28 16:29:00,
2013-01-28 08:34:00,41.1,31.2,30.15,SSW,203,0.0,0.0,67,32.25,,,99.99,WSDL version 423,2013-01-28 16:34:00,
2013-01-28 08:39:00,42.0,32.0,30.15,SSW,203,0.0,0.0,68,0.00,,,99.99,WSDL version 423,2013-01-28 16:39:00,
2013-01-28 08:44:00,42.9,32.4,30.15,SSW,203,0.0,0.0,63,0.00,,,99.99,WSDL version 423,2013-01-28 16:44:00,
2013-01-28 08:49:00,43.0,30.4,30.15,SSW,203,0.0,0.0,60,0.00,,,99.99,WSDL version 423,2013-01-28 16:49:00,
2013-01-28 08:54:00,43.3,29.0,30.15,SSW,203,0.0,0.0,55,0.00,,,99.99,WSDL version 423,2013-01-28 16:54:00,
2013-01-28 08:59:00,43.3,28.2,30.15,SSW,203,0.0,0.0,54,0.00,,,99.99,WSDL version 423,2013-01-28 16:59:00,
2013-01-28 09:04:00,43.4,28.1,30.15,SSW,203,0.0,0.0,54,32.25,,,99.99,WSDL version 423,2013-01-28 17:04:00,
2013-01-28 09:09:00,43.6,27.8,30.15,SSW,203,0.0,0.0,54,89.00,,,99.99,WSDL version 423,2013-01-28 17:09:00,
2013-01-28 09:14:00,43.9,27.5,30.15,SSW,203,0.0,0.0,53,99.99,,,99.99,WSDL version 423,2013-01-28 17:14:00,
2013-01-28 09:19:00,44.4,28.2,30.15,SSW,203,0.0,0.0,52,99.99,,,99.99,WSDL version 423,2013-01-28 17:19:00,
2013-01-28 09:24:00,44.7,28.1,30.15,SSW,203,0.0,0.0,51,99.99,,,99.99,WSDL version 423,2013-01-28 17:24:00,
2013-01-28 09:29:00,45.1,28.1,30.15,SSW,203,0.0,0.0,52,99.99,,,99.99,WSDL version 423,2013-01-28 17:29:00,
2013-01-28 09:34:00,45.9,29.2,30.15,SSW,203,0.0,0.0,52,99.99,,,99.99,WSDL version 423,2013-01-28 17:34:00,
2013-01-28 09:39:00,46.9,29.7,30.15,SSW,203,0.0,0.0,50,99.99,,,99.99,WSDL version 423,2013-01-28 17:39:00,
2013-01-28 09:44:00,46.9,29.3,30.15,SSW,203,0.0,0.0,50,99.99,,,99.99,WSDL version 423,2013-01-28 17:44:00,
2013-01-28 09:49:00,47.9,30.2,30.15,SSW,203,0.0,0.0,48,99.99,,,99.99,WSDL version 423,2013-01-28 17:49:00,
2013-01-28 09:54:00,47.7,28.2,30.16,SSW,203,0.0,0.0,45,99.99,,,99.99,WSDL version 423,2013-01-28 17:54:00,
2013-01-28 09:59:00,47.2,25.8,30.16,SSW,203,0.0,0.0,44,99.99,,,99.99,WSDL version 423,2013-01-28 17:59:00,
2013-01-28 10:04:00,46.9,24.7,30.16,SSW,203,0.0,0.0,41,99.99,,,99.99,WSDL version 423,2013-01-28 18:04:00,
2013-01-28 10:09:00,46.9,23.6,30.17,SSW,203,0.0,0.0,39,99.99,,,99.99,WSDL version 423,2013-01-28 18:09:00,
2013-01-28 10:14:00,47.0,24.6,30.17,SSW,203,0.0,0.0,41,99.99,,,99.99,WSDL version 423,2013-01-28 18:14:00,
2013-01-28 10:19:00,47.1,24.6,30.17,SSW,203,0.0,0.0,40,99.99,,,99.99,WSDL version 423,2013-01-28 18:19:00,
2013-01-28 10:24:00,47.4,24.8,30.17,SSW,203,0.0,0.0,40,99.99,,,99.99,WSDL version 423,2013-01-28 18:24:00,
2013-01-28 10:29:00,47.7,25.2,30.17,SSW,203,0.0,0.0,40,99.99,,,99.99,WSDL version 423,2013-01-28 18:29:00,
2013-01-28 10:34:00,47.8,24.8,30.17,SSW,203,0.0,0.0,41,99.99,,,99.99,WSDL version 423,2013-01-28 18:34:00,
2013-01-28 10:39:00,47.9,24.5,30.18,SSW,203,0.0,0.0,40,99.99,,,99.99,WSDL version 423,2013-01-28 18:39:00,
2013-01-28 10:44:00,48.1,24.5,30.18,SSW,203,0.0,0.0,39,99.99,,,99.99,WSDL version 423,2013-01-28 18:44:00,
2013-01-28 10:49:00,48.3,23.8,30.18,SSW,203,0.0,0.0,38,99.99,,,99.99,WSDL version 423,2013-01-28 18:49:00,
2013-01-28 10:54:00,48.2,23.8,30.18,SSW,203,0.0,0.0,38,99.99,,,99.99,WSDL version 423,2013-01-28 18:54:00,
2013-01-28 10:59:00,48.5,24.8,30.18,SSW,203,0.0,0.0,40,99.99,,,99.99,WSDL version 423,2013-01-28 18:59:00,
2013-01-28 11:04:00,48.6,25.3,30.18,SSW,203,0.0,0.0,40,99.99,,,99.99,WSDL version 423,2013-01-28 19:04:00,
2013-01-28 11:09:00,48.7,25.4,30.18,SSW,203,0.0,0.0,39,99.99,,,99.99,WSDL version 423,2013-01-28 19:09:00,
2013-01-28 11:14:00,49.0,25.5,30.18,SSW,203,0.0,0.0,40,99.99,,,99.99,WSDL version 423,2013-01-28 19:14:00,
2013-01-28 11:19:00,49.2,25.7,30.17,SSW,203,0.0,0.0,40,99.99,,,99.99,WSDL version 423,2013-01-28 19:19:00,
2013-01-28 11:24:00,49.6,25.8,30.17,SSW,203,0.0,0.0,39,99.99,,,99.99,WSDL version 423,2013-01-28 19:24:00,
2013-01-28 11:29:00,49.7,25.8,30.17,SSW,203,0.0,0.0,39,99.99,,,99.99,WSDL version 423,2013-01-28 19:29:00,
2013-01-28 11:34:00,50.2,26.1,30.17,SSW,203,0.0,0.0,39,99.99,,,99.99,WSDL version 423,2013-01-28 19:34:00,
2013-01-28 11:39:00,50.6,26.2,30.18,SSW,203,0.0,0.0,38,99.99,,,99.99,WSDL version 423,2013-01-28 19:39:00,
2013-01-28 11:44:00,50.8,26.1,30.18,SSW,203,0.0,0.0,38,99.99,,,99.99,WSDL version 423,2013-01-28 19:44:00,
2013-01-28 11:49:00,50.9,26.1,30.18,SSW,203,0.0,0.0,37,99.99,,,99.99,WSDL version 423,2013-01-28 19:49:00,
2013-01-28 11:54:00,50.9,26.0,30.17,SSW,203,0.0,0.0,37,99.99,,,99.99,WSDL version 423,2013-01-28 19:54:00,
2013-01-28 12:04:00,51.1,25.9,30.17,SSW,203,0.0,0.0,37,99.99,,,99.99,WSDL version 423,2013-01-28 20:04:00,
2013-01-28 12:09:00,51.3,26.0,30.17,SSW,203,0.0,0.0,38,99.99,,,99.99,WSDL version 423,2013-01-28 20:09:00,
2013-01-28 12:14:00,51.4,26.4,30.17,SSW,203,0.0,0.0,38,99.99,,,99.99,WSDL version 423,2013-01-28 20:14:00,
2013-01-28 12:19:00,51.3,25.9,30.17,SSW,203,0.0,0.0,37,99.99,,,99.99,WSDL version 423,2013-01-28 20:19:00,
2013-01-28 12:24:00,51.3,26.5,30.17,SSW,203,0.0,0.0,38,99.99,,,99.99,WSDL version 423,2013-01-28 20:24:00,
2013-01-28 12:29:00,51.5,26.5,30.17,SSW,203,0.0,0.0,38,99.99,,,99.99,WSDL version 423,2013-01-28 20:29:00,
2013-01-28 12:34:00,51.6,26.6,30.16,SSW,203,0.0,0.0,38,99.99,,,99.99,WSDL version 423,2013-01-28 20:34:00,
2013-01-28 12:39:00,51.8,26.4,30.16,SSW,203,0.0,0.0,37,99.99,,,99.99,WSDL version 423,2013-01-28 20:39:00,
2013-01-28 12:44:00,51.8,26.7,30.16,SSW,203,0.0,0.0,38,99.99,,,99.99,WSDL version 423,2013-01-28 20:44:00,
2013-01-28 12:49:00,51.7,26.6,30.16,SSW,203,0.0,0.0,38,99.99,,,99.99,WSDL version 423,2013-01-28 20:49:00,
2013-01-28 12:54:00,51.5,26.7,30.16,SSW,203,0.0,0.0,38,99.99,,,99.99,WSDL version 423,2013-01-28 20:54:00,
2013-01-28 12:59:00,51.4,26.7,30.16,SSW,203,0.0,0.0,38,99.99,,,99.99,WSDL version 423,2013-01-28 20:59:00,
2013-01-28 13:04:00,51.5,26.8,30.16,SSW,203,0.0,0.0,38,99.99,,,99.99,WSDL version 423,2013-01-28 21:04:00,
2013-01-28 13:09:00,51.7,26.9,30.16,SSW,203,0.0,0.0,38,99.99,,,99.99,WSDL version 423,2013-01-28 21:09:00,
2013-01-28 13:14:00,51.8,26.9,30.16,SSW,203,0.0,0.0,38,99.99,,,99.99,WSDL version 423,2013-01-28 21:14:00,
2013-01-28 13:24:00,51.7,27.3,30.16,SSW,203,0.0,0.0,38,99.99,,,99.99,WSDL version 423,2013-01-28 21:24:00,
2013-01-28 13:29:00,51.6,27.5,30.16,SSW,203,0.0,0.0,39,99.99,,,99.99,WSDL version 423,2013-01-28 21:29:00,
2013-01-28 13:34:00,51.5,27.4,30.16,SSW,203,0.0,0.0,39,99.99,,,99.99,WSDL version 423,2013-01-28 21:34:00,
2013-01-28 13:39:00,51.5,27.4,30.16,SSW,203,0.0,0.0,39,99.99,,,99.99,WSDL version 423,2013-01-28 21:39:00,
2013-01-28 13:44:00,51.6,27.8,30.15,SSW,203,0.0,0.0,40,99.99,,,99.99,WSDL version 423,2013-01-28 21:44:00,
2013-01-28 13:49:00,51.8,27.8,30.15,SSW,203,0.0,0.0,40,99.99,,,99.99,WSDL version 423,2013-01-28 21:49:00,
2013-01-28 13:59:00,51.8,27.7,30.15,SSW,203,0.0,0.0,39,99.99,,,99.99,WSDL version 423,2013-01-28 21:59:00,
2013-01-28 14:04:00,51.9,28.5,30.15,SSW,203,0.0,0.0,40,99.99,,,99.99,WSDL version 423,2013-01-28 22:04:00,
2013-01-28 14:09:00,52.1,28.6,30.15,SSW,203,0.0,0.0,40,99.99,,,99.99,WSDL version 423,2013-01-28 22:09:00,
2013-01-28 14:19:00,52.3,28.5,30.15,SSW,203,0.0,0.0,39,99.99,,,99.99,WSDL version 423,2013-01-28 22:19:00,
2013-01-28 14:24:00,52.5,28.2,30.15,SSW,203,0.0,0.0,38,99.99,,,99.99,WSDL version 423,2013-01-28 22:24:00,
2013-01-28 14:34:00,52.7,28.5,30.15,SSW,203,0.0,0.0,39,99.99,,,99.99,WSDL version 423,2013-01-28 22:34:00,
2013-01-28 14:39:00,53.0,28.9,30.15,SSW,203,0.0,0.0,39,99.99,,,99.99,WSDL version 423,2013-01-28 22:39:00,
2013-01-28 14:49:00,53.2,29.2,30.15,SSW,203,0.0,0.0,39,99.99,,,99.99,WSDL version 423,2013-01-28 22:49:00,
2013-01-28 14:54:00,53.2,28.9,30.14,SSW,203,0.0,0.0,39,99.99,,,99.99,WSDL version 423,2013-01-28 22:54:00,
2013-01-28 14:59:00,53.3,29.2,30.14,SSW,203,0.0,0.0,40,99.99,,,99.99,WSDL version 423,2013-01-28 22:59:00,
2013-01-28 15:09:00,53.5,29.4,30.15,SSW,203,0.0,0.0,39,99.99,,,99.99,WSDL version 423,2013-01-28 23:09:00,
2013-01-28 15:14:00,53.6,29.2,30.14,SSW,203,0.0,0.0,39,99.99,,,99.99,WSDL version 423,2013-01-28 23:14:00,
2013-01-28 15:19:00,53.6,28.6,30.14,SSW,203,0.0,0.0,38,99.99,,,99.99,WSDL version 423,2013-01-28 23:19:00,
2013-01-28 15:24:00,-999.0,-99.9,30.14,SSW,203,0.0,0.0,-999,99.99,,,99.99,WSDL version 423,2013-01-28 23:24:00,
2013-01-28 15:29:00,53.5,28.6,30.14,SSW,203,0.0,0.0,39,99.99,,,99.99,WSDL version 423,2013-01-28 23:29:00,
2013-01-28 15:34:00,53.2,28.9,30.15,SSW,203,0.0,0.0,39,99.99,,,99.99,WSDL version 423,2013-01-28 23:34:00,
2013-01-28 15:39:00,53.1,28.8,30.15,SSW,203,0.0,0.0,39,99.99,,,99.99,WSDL version 423,2013-01-28 23:39:00,
2013-01-28 15:44:00,53.1,29.0,30.15,SSW,203,0.0,0.0,40,99.99,,,99.99,WSDL version 423,2013-01-28 23:44:00,
2013-01-28 15:49:00,53.1,29.1,30.15,SSW,203,0.0,0.0,39,99.99,,,99.99,WSDL version 423,2013-01-28 23:49:00,
2013-01-28 15:54:00,53.2,28.8,30.15,SSW,203,0.0,0.0,39,99.99,,,99.99,WSDL version 423,2013-01-28 23:54:00,
2013-01-28 15:59:00,53.2,28.3,30.15,SSW,203,0.0,0.0,38,99.99,,,99.99,WSDL version 423,2013-01-28 23:59:00,
2013-01-28 16:04:00,53.3,28.4,30.15,SSW,203,0.0,0.0,38,99.99,,,99.99,WSDL version 423,2013-01-29 00:04:00,
2013-01-28 16:09:00,53.4,28.5,30.15,SSW,203,0.0,0.0,38,99.99,,,99.99,WSDL version 423,2013-01-29 00:09:00,
2013-01-28 16:14:00,53.3,28.5,30.15,SSW,203,0.0,0.0,39,99.99,,,99.99,WSDL version 423,2013-01-29 00:14:00,
2013-01-28 16:19:00,53.0,28.8,30.16,SSW,203,0.0,0.0,39,99.99,,,99.99,WSDL version 423,2013-01-29 00:19:00,
2013-01-28 16:24:00,52.7,28.5,30.16,SSW,203,0.0,0.0,39,99.99,,,99.99,WSDL version 423,2013-01-29 00:24:00,
2013-01-28 16:29:00,52.4,28.2,30.16,SSW,203,0.0,0.0,39,99.99,,,99.99,WSDL version 423,2013-01-29 00:29:00,
2013-01-28 16:34:00,52.2,28.0,30.16,SSW,203,0.0,0.0,39,99.99,,,99.99,WSDL version 423,2013-01-29 00:34:00,
2013-01-28 16:39:00,52.0,27.8,30.16,SSW,203,0.0,0.0,39,99.99,,,99.99,WSDL version 423,2013-01-29 00:39:00,
2013-01-28 16:44:00,51.8,27.6,30.16,SSW,203,0.0,0.0,39,99.99,,,99.99,WSDL version 423,2013-01-29 00:44:00,
2013-01-28 16:49:00,51.8,27.9,30.17,SSW,203,0.0,0.0,40,99.99,,,99.99,WSDL version 423,2013-01-29 00:49:00,
2013-01-28 16:54:00,51.5,28.8,30.17,SSW,203,0.0,0.0,42,99.99,,,99.99,WSDL version 423,2013-01-29 00:54:00,
2013-01-28 16:59:00,51.3,29.0,30.17,SSW,203,0.0,0.0,42,99.99,,,99.99,WSDL version 423,2013-01-29 00:59:00,
2013-01-28 17:04:00,51.0,29.0,30.16,SSW,203,0.0,0.0,43,99.99,,,99.99,WSDL version 423,2013-01-29 01:04:00,
2013-01-28 17:09:00,50.8,29.2,30.16,SSW,203,0.0,0.0,44,99.99,,,99.99,WSDL version 423,2013-01-29 01:09:00,
2013-01-28 17:14:00,50.5,29.4,30.17,SSW,203,0.0,0.0,44,99.99,,,99.99,WSDL version 423,2013-01-29 01:14:00,
2013-01-28 17:19:00,50.2,29.2,30.17,SSW,203,0.0,0.0,44,99.99,,,99.99,WSDL version 423,2013-01-29 01:19:00,
2013-01-28 17:24:00,50.0,29.2,30.17,SSW,203,0.0,0.0,45,99.99,,,99.99,WSDL version 423,2013-01-29 01:24:00,
2013-01-28 17:29:00,49.8,29.3,30.17,SSW,203,0.0,0.0,45,99.99,,,99.99,WSDL version 423,2013-01-29 01:29:00,
2013-01-28 17:34:00,49.7,29.6,30.17,SSW,203,0.0,0.0,46,99.99,,,99.99,WSDL version 423,2013-01-29 01:34:00,
2013-01-28 17:39:00,49.5,29.6,30.18,SSW,203,0.0,0.0,46,99.99,,,99.99,WSDL version 423,2013-01-29 01:39:00,
2013-01-28 17:44:00,49.3,29.8,30.18,SSW,203,0.0,0.0,47,99.99,,,99.99,WSDL version 423,2013-01-29 01:44:00,
2013-01-28 17:49:00,49.3,29.9,30.18,SSW,203,0.0,0.0,47,99.99,,,99.99,WSDL version 423,2013-01-29 01:49:00,
2013-01-28 17:54:00,49.3,29.9,30.18,SSW,203,0.0,0.0,47,99.99,,,99.99,WSDL version 423,2013-01-29 01:54:00,
2013-01-28 17:59:00,49.3,29.9,30.18,SSW,203,0.0,0.0,47,99.99,,,99.99,WSDL version 423,2013-01-29 01:59:00,
2013-01-28 18:04:00,49.5,30.1,30.18,SSW,203,0.0,0.0,47,99.99,,,99.99,WSDL version 423,2013-01-29 02:04:00,
2013-01-28 18:09:00,49.7,30.3,30.18,SSW,203,0.0,0.0,47,99.99,,,99.99,WSDL version 423,2013-01-29 02:09:00,
2013-01-28 18:14:00,50.0,30.1,30.18,SSW,203,0.0,0.0,46,99.99,,,99.99,WSDL version 423,2013-01-29 02:14:00,
2013-01-28 18:19:00,50.2,30.2,30.18,SSW,203,0.0,0.0,46,99.99,,,99.99,WSDL version 423,2013-01-29 02:19:00,
2013-01-28 18:29:00,50.2,30.2,30.18,SSW,203,0.0,0.0,46,99.99,,,99.99,WSDL version 423,2013-01-29 02:29:00,
2013-01-28 18:34:00,50.2,30.3,30.18,SSW,203,0.0,0.0,46,99.99,,,99.99,WSDL version 423,2013-01-29 02:34:00,
2013-01-28 18:39:00,50.2,30.2,30.19,SSW,203,0.0,0.0,46,99.99,,,99.99,WSDL version 423,2013-01-29 02:39:00,
2013-01-28 18:44:00,50.2,30.2,30.19,SSW,203,0.0,0.0,46,99.99,,,99.99,WSDL version 423,2013-01-29 02:44:00,
2013-01-28 18:49:00,50.2,30.2,30.19,SSW,203,0.0,0.0,46,99.99,,,99.99,WSDL version 423,2013-01-29 02:49:00,
2013-01-28 18:54:00,50.1,30.1,30.19,SSW,203,0.0,0.0,46,99.99,,,99.99,WSDL version 423,2013-01-29 02:54:00,
2013-01-28 18:59:00,49.9,30.3,30.19,SSW,203,0.0,0.0,47,96.75,,,99.99,WSDL version 423,2013-01-29 02:59:00,
2013-01-28 19:04:00,49.6,30.2,30.19,SSW,203,0.0,0.0,47,72.25,,,99.99,WSDL version 423,2013-01-29 03:04:00,
2013-01-28 19:09:00,49.3,30.4,30.19,SSW,203,0.0,0.0,48,64.50,,,99.99,WSDL version 423,2013-01-29 03:09:00,
2013-01-28 19:14:00,49.1,30.3,30.19,SSW,203,0.0,0.0,48,40.00,,,99.99,WSDL version 423,2013-01-29 03:14:00,
2013-01-28 19:19:00,48.9,30.1,30.19,SSW,203,0.0,0.0,48,0.00,,,99.99,WSDL version 423,2013-01-29 03:19:00,
2013-01-28 19:24:00,48.9,30.1,30.19,SSW,203,0.0,0.0,48,32.25,,,99.99,WSDL version 423,2013-01-29 03:24:00,
2013-01-28 19:29:00,48.7,29.9,30.19,SSW,203,0.0,0.0,48,64.50,,,99.99,WSDL version 423,2013-01-29 03:29:00,
2013-01-28 19:34:00,48.3,30.0,30.19,SSW,203,0.0,0.0,49,96.75,,,99.99,WSDL version 423,2013-01-29 03:34:00,
2013-01-28 19:39:00,47.9,29.9,30.20,SSW,203,0.0,0.0,50,99.99,,,99.99,WSDL version 423,2013-01-29 03:39:00,
2013-01-28 19:44:00,47.8,30.1,30.20,SSW,203,0.0,0.0,50,99.99,,,99.99,WSDL version 423,2013-01-29 03:44:00,
2013-01-28 19:49:00,47.7,29.9,30.20,SSW,203,0.0,0.0,50,99.99,,,99.99,WSDL version 423,2013-01-29 03:49:00,
2013-01-28 19:59:00,47.4,29.7,30.20,SSW,203,0.0,0.0,50,99.99,,,99.99,WSDL version 423,2013-01-29 03:59:00,
2013-01-28 20:04:00,47.1,29.7,30.21,SSW,203,0.0,0.0,51,99.99,,,99.99,WSDL version 423,2013-01-29 04:04:00,
2013-01-28 20:09:00,46.7,29.6,30.21,SSW,203,0.0,0.0,51,99.99,,,99.99,WSDL version 423,2013-01-29 04:09:00,
2013-01-28 20:14:00,46.3,29.4,30.21,SSW,203,0.0,0.0,52,99.99,,,99.99,WSDL version 423,2013-01-29 04:14:00,
2013-01-28 20:19:00,45.8,29.3,30.20,SSW,203,0.0,0.0,53,99.99,,,99.99,WSDL version 423,2013-01-29 04:19:00,
2013-01-28 20:24:00,45.2,29.1,30.21,SSW,203,0.0,0.0,53,99.99,,,99.99,WSDL version 423,2013-01-29 04:24:00,
2013-01-28 20:29:00,44.7,28.6,30.21,SSW,203,0.0,0.0,53,99.99,,,99.99,WSDL version 423,2013-01-29 04:29:00,
2013-01-28 20:34:00,44.4,28.9,30.21,SSW,203,0.0,0.0,55,99.99,,,99.99,WSDL version 423,2013-01-29 04:34:00,
2013-01-28 20:39:00,44.1,28.9,30.21,SSW,203,0.0,0.0,55,99.99,,,99.99,WSDL version 423,2013-01-29 04:39:00,
2013-01-28 20:44:00,44.0,29.0,30.21,SSW,203,0.0,0.0,56,99.99,,,99.99,WSDL version 423,2013-01-29 04:44:00,
2013-01-28 20:49:00,43.6,29.0,30.21,SSW,203,0.0,0.0,56,99.99,,,99.99,WSDL version 423,2013-01-29 04:49:00,
2013-01-28 20:54:00,43.4,28.8,30.21,SSW,203,0.0,0.0,57,99.99,,,99.99,WSDL version 423,2013-01-29 04:54:00,
2013-01-28 20:59:00,43.1,28.9,30.21,SSW,203,0.0,0.0,57,99.99,,,99.99,WSDL version 423,2013-01-29 04:59:00,
2013-01-28 21:04:00,43.0,29.0,30.21,SSW,203,0.0,0.0,58,99.99,,,99.99,WSDL version 423,2013-01-29 05:04:00,
2013-01-28 21:09:00,43.0,29.4,30.21,SSW,203,0.0,0.0,59,99.99,,,99.99,WSDL version 423,2013-01-29 05:09:00,
2013-01-28 21:14:00,42.8,29.5,30.21,SSW,203,0.0,0.0,59,99.99,,,99.99,WSDL version 423,2013-01-29 05:14:00,
2013-01-28 21:19:00,42.8,29.4,30.21,SSW,203,0.0,0.0,59,99.99,,,99.99,WSDL version 423,2013-01-29 05:19:00,
2013-01-28 21:24:00,42.6,29.5,30.21,SSW,203,0.0,0.0,60,99.99,,,99.99,WSDL version 423,2013-01-29 05:24:00,
2013-01-28 21:29:00,42.4,29.8,30.21,SSW,203,0.0,0.0,61,99.99,,,99.99,WSDL version 423,2013-01-29 05:29:00,
2013-01-28 21:34:00,42.2,29.7,30.21,SSW,203,0.0,0.0,61,99.99,,,99.99,WSDL version 423,2013-01-29 05:34:00,
2013-01-28 21:39:00,42.1,29.9,30.21,SSW,203,0.0,0.0,62,99.99,,,99.99,WSDL version 423,2013-01-29 05:39:00,
2013-01-28 21:44:00,41.9,29.6,30.21,SSW,203,0.0,0.0,62,99.99,,,99.99,WSDL version 423,2013-01-29 05:44:00,
2013-01-28 21:49:00,41.8,29.7,30.21,SSW,203,0.0,0.0,62,99.99,,,99.99,WSDL version 423,2013-01-29 05:49:00,
2013-01-28 21:54:00,41.7,30.1,30.21,SSW,203,0.0,0.0,64,99.99,,,99.99,WSDL version 423,2013-01-29 05:54:00,
2013-01-28 21:59:00,41.7,30.1,30.20,SSW,203,0.0,0.0,63,99.99,,,99.99,WSDL version 423,2013-01-29 05:59:00,
2013-01-28 22:04:00,41.6,30.0,30.21,SSW,203,0.0,0.0,64,99.99,,,99.99,WSDL version 423,2013-01-29 06:04:00,
2013-01-28 22:09:00,41.4,30.1,30.21,SSW,203,0.0,0.0,64,99.99,,,99.99,WSDL version 423,2013-01-29 06:09:00,
2013-01-28 22:14:00,41.3,30.1,30.21,SSW,203,0.0,0.0,65,99.99,,,99.99,WSDL version 423,2013-01-29 06:14:00,
2013-01-28 22:19:00,41.5,30.6,30.21,SSW,203,0.0,0.0,65,99.99,,,99.99,WSDL version 423,2013-01-29 06:19:00,
2013-01-28 22:24:00,41.3,30.4,30.21,SSW,203,0.0,0.0,65,99.99,,,99.99,WSDL version 423,2013-01-29 06:24:00,
2013-01-28 22:29:00,41.3,30.4,30.21,SSW,203,0.0,0.0,65,99.99,,,99.99,WSDL version 423,2013-01-29 06:29:00,
2013-01-28 22:34:00,41.3,30.9,30.21,SSW,203,0.0,0.0,67,99.99,,,99.99,WSDL version 423,2013-01-29 06:34:00,
2013-01-28 22:39:00,41.0,30.9,30.21,SSW,203,0.0,0.0,67,99.99,,,99.99,WSDL version 423,2013-01-29 06:39:00,
2013-01-28 22:44:00,41.1,31.0,30.21,SSW,203,0.0,0.0,67,99.99,,,99.99,WSDL version 423,2013-01-29 06:44:00,
2013-01-28 22:49:00,41.4,31.3,30.22,SSW,203,0.0,0.0,67,99.99,,,99.99,WSDL version 423,2013-01-29 06:49:00,
2013-01-28 22:54:00,41.5,31.4,30.22,SSW,203,0.0,0.0,67,99.99,,,99.99,WSDL version 423,2013-01-29 06:54:00,
2013-01-28 22:59:00,41.7,31.6,30.22,SSW,203,0.0,0.0,67,99.99,,,99.99,WSDL version 423,2013-01-29 06:59:00,
2013-01-28 23:04:00,41.5,31.4,30.22,SSW,203,0.0,0.0,67,99.99,,,99.99,WSDL version 423,2013-01-29 07:04:00,
2013-01-28 23:09:00,41.4,31.2,30.22,SSW,203,0.0,0.0,67,99.99,,,99.99,WSDL version 423,2013-01-29 07:09:00,
2013-01-28 23:14:00,41.4,31.2,30.22,SSW,203,0.0,0.0,67,99.99,,,99.99,WSDL version 423,2013-01-29 07:14:00,
2013-01-28 23:19:00,41.4,31.6,30.22,SSW,203,0.0,0.0,69,99.99,,,99.99,WSDL version 423,2013-01-29 07:19:00,
2013-01-28 23:24:00,41.9,32.2,30.22,SSW,203,0.0,0.0,68,99.99,,,99.99,WSDL version 423,2013-01-29 07:24:00,
2013-01-28 23:29:00,42.0,32.1,30.22,SSW,203,0.0,0.0,67,99.99,,,99.99,WSDL version 423,2013-01-29 07:29:00,
2013-01-28 23:34:00,41.6,31.5,30.22,SSW,203,0.0,0.0,67,99.99,,,99.99,WSDL version 423,2013-01-29 07:34:00,
2013-01-28 23:39:00,41.4,31.3,30.22,SSW,203,0.0,0.0,67,99.99,,,99.99,WSDL version 423,2013-01-29 07:39:00,
2013-01-28 23:44:00,41.0,30.9,30.22,SSW,203,0.0,0.0,67,99.99,,,99.99,WSDL version 423,2013-01-29 07:44:00,
2013-01-28 23:49:00,40.7,31.0,30.22,SSW,203,0.0,0.0,68,99.99,,,99.99,WSDL version 423,2013-01-29 07:49:00,
2013-01-28 23:54:00,40.5,31.0,30.22,SSW,203,0.0,0.0,69,99.99,,,99.99,WSDL version 423,2013-01-29 07:54:00,
2013-01-28 23:59:00,40.1,30.6,30.22,SSW,203,0.0,0.0,68,99.99,,,99.99,WSDL version 423,2013-01-29 07:59:00,